Meath Environmental Platform

Observations for Trim Market St

Time AQI Temp °C Hum % Pres Pa CO μg/m³ H₂S μg/m³ NO μg/m³ NO₂ μg/m³ O₃ μg/m³ SO₂ μg/m³ PM1 μg/m³ PM2.5 μg/m³ PM10 μg/m³
Tuesday 14 July 2026
15:21 1 36 25 66,562 0 0 0 0 21.31 1.22 2.85 7.35 7.52
15:19 1 36 26 66,588 0 0 0 10.46 10.74 0 3.56 6.8 7.48
15:16 1 36 25 66,588 0 0 0 4.37 9.68 0 2.85 6.8 7.48
15:15 1 36 26 66,572 0 0 0 0 20.26 0.61 3.56 6.8 7.48
15:08 1 35.8 26 66,560 0 0 0 7.99 29.95 0.01 2.85 6.24 6.86
15:07 1 35.8 26 66,533 0 0 0 8 35.42 0 2.14 5.7 6.27
15:03 1 35.6 26 66,511 0 2.08 0 8.87 33.02 0 3.56 6.8 7.48
15:02 1 35.6 25 66,501 0 1.7 0 7.38 42.53 0.15 2.14 5.71 6.28
14:56 1 35.3 24 66,487 0 0 0 7.4 40.94 0 2.14 5.21 5.73
14:55 1 35.3 24 66,469 0 0 0 6.6 12.35 0 2.85 6.31 7.52
14:54 1 35.2 24 66,457 0 0 0 30.6 0 0 2.85 5.75 6.33
14:53 1 35.2 24 66,465 0 0 0 7.1 43.43 0 2.85 5.75 6.33
14:52 1 35.1 24 66,485 0 0 0 3.76 46.58 0 1.43 5.22 5.74
14:51 1 35.1 24 66,476 0 0 0 0 40.08 0 1.43 5.24 5.76
14:50 1 35.1 23 66,489 0 0 0 5.34 42.96 0 2.14 5.8 7.52
14:49 1 35.1 23 66,485 0 0 0 0 33.71 0 2.14 6.92 7.61
14:48 1 35.1 23 66,505 0 0 0 0 38.51 0 2.14 5.81 6.39
14:47 1 35.1 23 66,501 0 0 0 0 18.68 0 1.43 5.25 5.78
14:46 1 35.1 24 66,501 0 0 0 2.32 44.9 0 2.14 5.79 6.37
14:45 1 35.2 23 66,503 0 0 0 0 32.4 0 1.43 5.25 5.78